Stations météo

réclame
Mon MeteoGroup
Lichteiland Goeree, Pays-Bas (6320): Température de l'air & dewpoint: 11.11.2017 23:00:00 - 17.11.2017 23:00:00 (CET)Lichteiland Goeree, Pays-Bas (6320): water temperature: 11.11.2017 23:00:00 - 17.11.2017 23:00:00 (CET)Lichteiland Goeree, Pays-Bas (6320): Vitesse du vent & gusts: 11.11.2017 23:00:00 - 17.11.2017 23:00:00 (CET)Lichteiland Goeree, Pays-Bas (6320): Direction du vent: 11.11.2017 23:00:00 - 17.11.2017 23:00:00 (CET)Lichteiland Goeree, Pays-Bas (6320): reduced air pressure: 11.11.2017 23:00:00 - 17.11.2017 23:00:00 (CET)Lichteiland Goeree, Pays-Bas (6320): visibility: 11.11.2017 23:00:00 - 17.11.2017 23:00:00 (CET)
Date & Time tt [°C] td [°C] tw [°C] ff [km/h] ff [knt] fx [km/h] fx [knt] dd ppp [hPa] vv [km]
17.11.2017 23:00:00 9,0 1,0 12,1 28 15 40 21 W 1025,1 10
17.11.2017 22:00:00 9,0 1,0 12,1 28 15 - - W 1025,5 10
17.11.2017 21:00:00 9,0 1,0 12,0 28 15 32 18 WNW 1025,9 10
17.11.2017 20:00:00 9,0 1,0 12,0 26 14 32 18 WNW 1026,4 10
17.11.2017 19:00:00 9,0 1,0 12,0 24 13 - - WNW 1026,5 10
17.11.2017 18:00:00 9,0 0,0 11,9 21 11 29 16 WNW 1026,4 10
17.11.2017 17:00:00 10,0 1,0 12,1 24 13 29 16 WNW 1026,8 10
17.11.2017 16:00:00 9,0 1,0 12,1 24 13 - - WNW 1027,2 10
17.11.2017 15:00:00 9,0 1,0 12,1 16 9 25 14 WNW 1026,9 10
17.11.2017 14:00:00 10,0 1,0 11,9 22 12 25 14 NW 1027,7 10
17.11.2017 13:00:00 10,0 2,0 12,1 22 12 - - NW 1027,8 10
17.11.2017 12:00:00 10,0 2,0 12,1 22 12 25 14 NW 1028,1 10
17.11.2017 11:00:00 10,0 2,0 12,1 15 8 22 12 NW 1028,1 10
17.11.2017 10:00:00 10,0 1,0 12,1 15 8 - - NNW 1028,0 10
17.11.2017 09:00:00 10,0 1,0 12,1 16 9 18 10 NNW 1027,9 10
17.11.2017 08:00:00 10,0 1,0 12,1 9 5 14 8 NNW 1027,7 10
17.11.2017 07:00:00 10,0 1,0 12,2 11 6 - - N 1027,2 10
17.11.2017 06:00:00 10,0 1,0 12,2 11 6 25 14 N 1027,2 10
17.11.2017 05:00:00 10,0 1,0 12,2 18 10 25 14 N 1026,9 10
17.11.2017 04:00:00 10,0 1,0 12,2 16 9 - - N 1026,6 10
17.11.2017 03:00:00 10,0 1,0 12,2 18 10 29 16 N 1026,5 10
17.11.2017 02:00:00 10,0 2,0 12,1 24 13 32 18 N 1026,1 10
17.11.2017 01:00:00 10,0 2,0 12,1 26 14 - - N 1025,9 10
17.11.2017 00:00:00 11,0 4,0 12,0 26 14 36 19 N 1025,4 10
16.11.2017 23:00:00 11,0 4,0 12,1 29 16 40 21 N 1024,8 10
16.11.2017 22:00:00 11,0 6,0 12,1 42 23 - - N 1024,4 10
16.11.2017 21:00:00 11,0 7,0 12,0 29 16 43 23 N 1023,7 10
16.11.2017 20:00:00 11,0 8,0 12,2 50 27 54 29 N 1022,8 10
16.11.2017 19:00:00 13,0 9,0 12,2 34 18 - - WNW 1022,4 10
16.11.2017 18:00:00 13,0 9,0 12,1 37 20 40 21 W 1021,7 10
16.11.2017 17:00:00 13,0 10,0 12,2 34 18 36 19 W 1021,4 10
16.11.2017 16:00:00 13,0 10,0 12,2 29 16 - - WSW 1021,1 10
16.11.2017 15:00:00 12,0 11,0 12,2 29 16 32 18 SW 1020,9 6
16.11.2017 14:00:00 12,0 11,0 12,2 29 16 32 18 SW 1021,1 5
16.11.2017 13:00:00 12,0 11,0 12,2 34 18 - - SW 1021,3 5
16.11.2017 12:00:00 11,0 11,0 12,0 31 17 32 18 SW 1021,7 4,2
16.11.2017 11:00:00 11,0 10,0 12,1 31 17 32 18 SW 1021,9 4,5
16.11.2017 10:00:00 11,0 10,0 12,1 31 17 - - SW 1022,0 5
16.11.2017 09:00:00 11,0 10,0 12,1 28 15 29 16 SW 1021,7 4,6
16.11.2017 08:00:00 11,0 10,0 12,2 28 15 29 16 SW 1021,5 5
16.11.2017 07:00:00 10,0 10,0 12,2 28 15 - - SW 1021,5 5
16.11.2017 06:00:00 10,0 10,0 12,1 29 16 32 18 SSW 1021,5 4,9
16.11.2017 05:00:00 11,0 10,0 12,3 28 15 32 18 SSW 1021,8 3,6
16.11.2017 04:00:00 11,0 10,0 12,2 28 15 - - SW 1022,3 3,0
16.11.2017 03:00:00 11,0 10,0 12,3 28 15 32 18 SSW 1022,4 3,5
16.11.2017 02:00:00 11,0 10,0 12,3 28 15 29 16 SSW 1022,8 3,5
16.11.2017 01:00:00 11,0 10,0 12,0 28 15 - - SSW 1023,1 2,5
16.11.2017 00:00:00 11,0 10,0 12,1 26 14 25 14 SSW 1023,4 4,7
15.11.2017 23:00:00 11,0 10,0 12,0 26 14 25 14 SSW 1023,6 5
15.11.2017 22:00:00 11,0 10,0 12,1 22 12 - - SSW 1023,9 3,0
15.11.2017 21:00:00 11,0 10,0 12,1 21 11 22 12 SSW 1024,3 5
15.11.2017 20:00:00 11,0 10,0 12,2 13 7 22 12 SW 1024,1 10
15.11.2017 19:00:00 11,0 10,0 12,2 24 13 - - SW 1024,2 10
15.11.2017 18:00:00 11,0 10,0 12,3 24 13 29 16 SW 1024,0 3,4
15.11.2017 17:00:00 11,0 11,0 12,3 28 15 29 16 SW 1023,9 9
15.11.2017 16:00:00 12,0 11,0 12,3 18 10 - - SW 1024,3 7
15.11.2017 15:00:00 12,0 11,0 12,3 18 10 18 10 WSW 1024,0 10
15.11.2017 14:00:00 12,0 11,0 12,2 18 10 18 10 WSW 1023,9 10
15.11.2017 13:00:00 12,0 11,0 12,0 21 11 - - WSW 1024,2 10
15.11.2017 12:00:00 11,0 11,0 12,0 13 7 25 14 W 1024,5 2,9
15.11.2017 11:00:00 11,0 11,0 12,0 24 13 25 14 SSW 1024,5 5
15.11.2017 10:00:00 11,0 11,0 12,1 24 13 - - SW 1024,3 6
15.11.2017 09:00:00 12,0 11,0 12,1 24 13 25 14 SW 1024,0 7
15.11.2017 08:00:00 11,0 11,0 12,2 24 13 25 14 SW 1023,7 5
15.11.2017 07:00:00 11,0 10,0 12,2 26 14 - - SW 1023,4 5
15.11.2017 06:00:00 11,0 10,0 12,3 24 13 29 16 SW 1023,5 5
15.11.2017 05:00:00 11,0 10,0 12,3 29 16 29 16 SW 1023,3 4,6
15.11.2017 04:00:00 11,0 10,0 12,2 31 17 - - SW 1023,3 5
15.11.2017 03:00:00 11,0 10,0 12,3 29 16 32 18 SW 1023,7 5
15.11.2017 02:00:00 11,0 10,0 12,3 31 17 29 16 SW 1023,6 6
15.11.2017 01:00:00 11,0 10,0 12,1 29 16 - - SW 1023,7 7
15.11.2017 00:00:00 11,0 10,0 12,1 26 14 36 19 WSW 1023,7 10
14.11.2017 23:00:00 11,0 10,0 12,2 28 15 36 19 SW 1023,5 7
14.11.2017 22:00:00 12,0 10,0 12,2 26 14 - - SW 1023,6 10
14.11.2017 21:00:00 12,0 8,0 12,0 22 12 29 16 W 1023,6 10
14.11.2017 20:00:00 12,0 9,0 12,0 24 13 29 16 W 1023,6 10
14.11.2017 19:00:00 12,0 9,0 12,2 26 14 - - W 1023,3 10
14.11.2017 18:00:00 11,0 10,0 12,2 28 15 29 16 W 1022,7 10
14.11.2017 17:00:00 11,0 10,0 12,3 29 16 32 18 W 1022,5 10
14.11.2017 16:00:00 11,0 10,0 12,3 31 17 - - W 1022,3 6
14.11.2017 15:00:00 10,0 10,0 12,3 34 18 40 21 W 1022,3 7
14.11.2017 14:00:00 10,0 9,0 12,3 41 22 43 23 W 1022,1 8
14.11.2017 13:00:00 11,0 9,0 12,3 44 24 - - W 1021,9 10
14.11.2017 12:00:00 11,0 8,0 11,9 46 25 47 25 W 1022,0 10
14.11.2017 11:00:00 11,0 8,0 12,0 42 23 43 23 WSW 1022,4 10
14.11.2017 10:00:00 11,0 7,0 11,9 42 23 - - W 1022,4 10
14.11.2017 09:00:00 - - 11,9 35 19 - - WSW 1022,2 18
14.11.2017 08:00:00 10,0 4,0 11,9 41 22 43 23 WSW 1021,7 10
14.11.2017 07:00:00 10,0 4,0 12,1 39 21 - - W 1022,0 10
14.11.2017 06:00:00 10,0 2,0 12,2 37 20 43 23 W 1022,5 10
14.11.2017 05:00:00 9,0 2,0 12,2 39 21 43 23 W 1022,4 10
14.11.2017 04:00:00 9,0 3,0 12,2 39 21 - - W 1023,0 10
14.11.2017 03:00:00 9,0 3,0 11,9 34 18 36 19 W 1023,3 10
14.11.2017 02:00:00 9,0 3,0 11,9 31 17 32 18 W 1023,6 10
14.11.2017 01:00:00 9,0 5,0 11,8 26 14 - - W 1023,7 10
14.11.2017 00:00:00 9,0 4,0 12,0 18 10 29 16 NW 1023,9 10
13.11.2017 23:00:00 9,0 4,0 11,6 28 15 29 16 NW 1023,8 10
13.11.2017 22:00:00 9,0 3,0 11,9 24 13 - - NNW 1023,7 10
13.11.2017 21:00:00 10,0 3,0 11,9 28 15 32 18 NNW 1023,6 10
13.11.2017 20:00:00 9,0 4,0 11,9 28 15 - - NNE 1023,4 10
13.11.2017 19:00:00 9,0 3,0 11,8 34 18 - - N 1023,3 10
13.11.2017 18:00:00 9,0 4,0 11,9 28 15 40 21 NNW 1022,9 10
13.11.2017 17:00:00 10,0 3,0 12,4 37 20 47 25 N 1022,2 10
13.11.2017 16:00:00 10,0 2,0 12,1 37 20 - - N 1021,8 10
13.11.2017 15:00:00 9,0 4,0 12,4 39 21 50 27 NNE 1021,5 10
13.11.2017 14:00:00 10,0 2,0 12,4 44 24 50 27 NNW 1020,9 10
13.11.2017 13:00:00 10,4 1,9 12,4 41 22 58 31 N 1020,9 10
13.11.2017 12:00:00 10,0 3,3 12,5 39 21 65 35 N 1020,8 10
13.11.2017 11:00:00 9,5 3,4 12,5 54 29 65 35 N 1020,3 10
13.11.2017 10:00:00 9,7 3,4 12,5 50 27 58 31 N 1019,8 10
13.11.2017 09:00:00 9,3 2,3 12,5 44 24 61 33 N 1019,2 10
13.11.2017 08:00:00 9,0 4,0 12,5 42 23 61 33 N 1018,2 10
13.11.2017 07:00:00 9,5 2,8 12,6 50 27 61 33 N 1017,6 10
13.11.2017 06:00:00 9,9 3,7 12,6 52 28 61 33 N 1016,4 10
13.11.2017 05:00:00 10,2 2,8 12,5 54 29 68 37 N 1015,7 10
13.11.2017 04:00:00 10,2 3,3 12,5 61 33 72 39 N 1015,1 10
13.11.2017 03:00:00 8,7 3,7 12,5 54 29 72 39 N 1014,5 6
13.11.2017 02:00:00 9,2 4,6 12,5 44 24 72 39 N 1013,9 10
13.11.2017 01:00:00 10,5 4,1 12,6 61 33 68 37 N 1012,7 10
13.11.2017 00:00:00 9,9 3,9 12,6 55 30 79 43 N 1012,1 7
12.11.2017 23:00:00 9,9 3,8 12,6 55 30 79 43 N 1011,1 9
12.11.2017 22:00:00 9,6 4,9 12,6 52 28 65 35 N 1010,2 10
12.11.2017 21:00:00 8,3 4,5 12,4 55 30 79 43 NNE 1009,4 5
12.11.2017 20:00:00 10,1 3,5 12,7 55 30 72 39 N 1008,0 10
12.11.2017 19:00:00 10,0 3,8 12,7 46 25 61 33 N 1006,5 10
12.11.2017 18:00:00 9,5 3,5 12,6 48 26 76 41 N 1004,9 10
12.11.2017 17:00:00 9,3 3,9 12,6 72 39 83 45 N 1003,1 10
12.11.2017 16:00:00 7,8 4,7 12,7 48 26 68 37 N 1002,2 10
12.11.2017 15:00:00 7,9 3,5 12,7 72 39 79 43 NNW 1001,2 10
12.11.2017 14:00:00 6,4 3,7 12,7 37 20 68 37 N 1001,7 10
12.11.2017 13:00:00 7,7 3,6 12,8 55 30 61 33 NW 1001,4 10
12.11.2017 12:00:00 7,6 2,9 12,7 59 32 68 37 NW 1001,3 10
12.11.2017 11:00:00 8,0 2,0 12,7 52 28 58 31 NNW 1001,6 10
12.11.2017 10:00:00 8,9 0,6 12,5 54 29 61 33 WNW 1002,2 10
12.11.2017 09:00:00 9,3 0,2 12,7 48 26 54 29 WNW 1002,7 10
12.11.2017 08:00:00 9,2 1,4 12,7 37 20 47 25 WNW 1003,2 10
12.11.2017 07:00:00 8,0 2,6 12,8 44 24 54 29 NW 1004,2 10
12.11.2017 06:00:00 9,4 2,4 12,7 31 17 40 21 WNW 1005,0 10
12.11.2017 05:00:00 9,6 1,6 12,9 31 17 36 19 WNW 1005,9 10
12.11.2017 04:00:00 9,7 1,5 12,8 29 16 36 19 W 1006,8 10
12.11.2017 03:00:00 9,7 2,2 12,8 28 15 32 18 WNW 1007,5 10
12.11.2017 02:00:00 9,7 2,0 12,9 24 13 32 18 W 1008,3 10
12.11.2017 01:00:00 9,7 2,4 12,8 35 19 43 23 WNW 1009,2 10
12.11.2017 00:00:00 9,7 1,4 12,8 28 15 36 19 NW 1009,7 10
11.11.2017 23:00:00 9,7 1,8 12,9 29 16 36 19 NW 1010,2 10

tt = Température de l'air
td = dewpoint
tw = water temperature
ff = Vitesse du vent
fx = gusts
dd = Direction du vent
ppp = reduced air pressure
vv = visibility

stations d'obs. à proximité